P/2017 P1 ( PanSTARRS )

Japanese version
Home page
Updated on October 9, 2017

---------------------------------------------------------------------

* Profile

Discovery Date August 15, 2017
Magnitude 20.8 mag
Discoverer Pan-STARRS 1 telescope (Haleakala)

* Pictures

* Orbital Elements

Epoch 2018 June 11.0 TT = JDT 2458280.5
T 2018 June 17.06904 TT                                 MPCW
q   5.4389189            (2000.0)            P               Q
n   0.04463765     Peri.  122.14088     +0.95393072     +0.28664335
a   7.8704915      Node   221.39169     -0.29995939     +0.90490455
e   0.3089480      Incl.    7.70159     -0.00636736     +0.31461619
P  22.08
From 42 observations 2017 June 25-Aug. 24, mean residual 0".4.

* Magnitudes Graph

        m1 = 9.5 + 5 log d + 10.0 log r

---------------------------------------------------------------------

The orbital elements are published on M.P.E.C. 2017-T14.
The magnitudes graphs are made with Comet for Windows.

---------------------------------------------------------------------

Copyright(C) Seiichi Yoshida (comet@aerith.net). All rights reserved.